This is the latest recevied weather packets stored in our database for station/object KE5QKR. If no packets are shown the sender has not sent any weather packets the latest 10 day(s).
| Time | Temp. | Humidity | Pressure | Rain* | Wind** | Luminosity | Snow |
|---|---|---|---|---|---|---|---|
| 1778027254 | 23.33° C | 86% | 1010.4 hPa | 0 mm | - | 5 W/m² | - |
| 1778026950 | 23.33° C | 86% | 1010.2 hPa | 0 mm | - | 8 W/m² | - |
| 1778026646 | 23.89° C | 85% | 1010.3 hPa | 0 mm | - | 12 W/m² | - |
| 1778026344 | 23.89° C | 85% | 1010.4 hPa | 0 mm | - | 16 W/m² | - |
| 1778026040 | 23.89° C | 84% | 1010.3 hPa | 0 mm | - | 19 W/m² | - |
| 1778025738 | 23.89° C | 84% | 1010.2 hPa | 0 mm | - | 23 W/m² | - |
| 1778025435 | 23.89° C | 83% | 1010.1 hPa | 0 mm | - | 27 W/m² | - |
| 1778025133 | 24.44° C | 83% | 1010.1 hPa | 0 mm | - | 34 W/m² | - |
| 1778024829 | 24.44° C | 82% | 1010.3 hPa | 0 mm | - | 43 W/m² | - |
| 1778024527 | 24.44° C | 82% | 1010.4 hPa | 0 mm | - | 41 W/m² | - |
| 1778024223 | 24.44° C | 81% | 1010.2 hPa | 0 mm | - | 45 W/m² | - |
| 1778023921 | 24.44° C | 81% | 1010.3 hPa | 0 mm | - | 53 W/m² | - |
| 1778023618 | 25° C | 80% | 1010.2 hPa | 0 mm | - | 64 W/m² | - |
| 1778023316 | 25° C | 80% | 1010.3 hPa | 0 mm | - | 72 W/m² | - |
| 1778023012 | 25° C | 79% | 1010.1 hPa | 0 mm | - | 69 W/m² | - |
| 1778022711 | 25° C | 79% | 1010.2 hPa | 0 mm | - | 72 W/m² | - |
| 1778022409 | 25° C | 79% | 1010.2 hPa | 0 mm | - | 69 W/m² | - |
| 1778022105 | 25° C | 79% | 1009.9 hPa | 0 mm | - | 61 W/m² | - |
| 1778021801 | 25° C | 78% | 1010.3 hPa | 0 mm | - | 62 W/m² | - |
| 1778021498 | 25° C | 78% | 1010.4 hPa | 0 mm | - | 58 W/m² | - |
| 1778021194 | 25.56° C | 78% | 1010.3 hPa | 0 mm | - | 83 W/m² | - |
| 1778020891 | 25.56° C | 78% | 1010.3 hPa | 0 mm | - | 102 W/m² | - |
| 1778020589 | 25.56° C | 77% | 1010.3 hPa | 0 mm | - | 71 W/m² | - |
| 1778020285 | 25.56° C | 77% | 1010.1 hPa | 0 mm | - | 105 W/m² | - |
| 1778019981 | 25.56° C | 76% | 1010.4 hPa | 0 mm | - | 129 W/m² | - |
* Rain latest hour (hover to see other rain measurements)
** Current wind speed in m/s (hover to see current wind gust speed)